Regional Weather Roundup
Issued by NWS

Home | Current Version | Previous Version | Text Only | Print | Product List | Glossary On
Versions: 1 2 3 4 5 6 7 8 9 10 11 12 13 14 15 16 17 18 19 20 21 22 23 24 25 26 27 28 29 30 31 32 33 34 35 36 37 38 39 40 41 42 43 44 45 46 47 48 49 50
000
ASUS43 KLMK 150010
RWRKY
KENTUCKY REGIONAL WEATHER ROUNDUP
NATIONAL WEATHER SERVICE LOUISVILLE KY
800 PM EDT SUN SEP 14 2014

NOTE "FAIR" INDICATES FEW OR NO CLOUDS BELOW 12,000 FEET
WITH NO SIGNIFICANT WEATHER AND/OR OBSTRUCTIONS TO VISIBILITY.

KYZ001>023-026-027-061>063-070>075-150100-
WESTERN AND SOUTH CENTRAL KENTUCKY

CITY           SKY/WX    TMP DP  RH WIND       PRES   REMARKS
PADUCAH        CLEAR     65  54  67 CALM      30.17F
HENDERSON      CLEAR     64  50  59 CALM      30.19S
OWENSBORO      CLEAR     69  51  52 N3        30.20R
HOPKINSVILLE   CLEAR     69  54  59 NE3       30.18R
BOWLING GREEN  CLEAR     71  50  47 CALM      30.18S
GLASGOW        CLEAR     66  52  62 CALM      30.18S
$$

KYZ024-025-028>034-038-045-046-053-150100-
NORTH CENTRAL KENTUCKY

CITY           SKY/WX    TMP DP  RH WIND       PRES   REMARKS
LOUISVILLE/SDF CLEAR     68  49  50 W6        30.18S
LOUISVILLE/LOU CLEAR     69  49  48 NE3       30.19S
FORT KNOX      CLEAR     61  56  84 N3        30.18S
$$

KYZ035>037-039>044-047>052-055>060-089>105-150100-
NORTHEAST KENTUCKY

CITY           SKY/WX    TMP DP  RH WIND       PRES   REMARKS
LEXINGTON      CLEAR     66  49  54 N3        30.20S
COVINGTON      CLEAR     65  46  50 CALM      30.20S
FRANKFORT      CLEAR     65  49  56 SE5       30.19S
$$

KYZ054-064>069-076>088-106>120-150100-
SOUTHEAST KENTUCKY

CITY           SKY/WX    TMP DP  RH WIND       PRES   REMARKS
JACKSON        CLEAR     62  55  77 CALM      30.21S
LONDON         CLEAR     67  57  70 N3        30.19S
SOMERSET       NOT AVBL
MIDDLESBORO    CLOUDY    68  63  82 CALM      30.18S
MONTICELLO     CLEAR     64  60  87 CALM      30.20S
$$



USA.gov is the U.S. government's official web portal to all federal, state and local government web resources and services.